Home > Weather > Parakou > Past weeks

Flag for Benin Weather for the Past 2 Weeks in Parakou, Benin

Now
81 °F

Clear.


Feels Like: 79 °F
Forecast: 60 / 97 °F
Wind: 7 mph from North

Location: Niamtougou

Current Time: Feb 12, 2016 at 1:18:52 AM

Latest Report: Feb 11, 2016 at 10:00 PM


Visibility: 10 mi

Pressure: 29.98 "Hg

Humidity: 20%

Dew point: 36 °F

Location of ParakouLocation

Historic Weather in Parakou — Graph

°F

Parakou Temperature Yesterday

Maximum temperature yesterday: 93 °F (at 3:00 PM)
Minimum temperature yesterday: 68 °F (at 8:00 AM)
Average temperature yesterday: 82 °F

High & Low Weather Summary for the Past Weeks

 TemperatureHumidityPressure
High95 °F (Feb 6, 4:00 PM)30% (Feb 3, 10:00 PM)30.12 "Hg (Feb 3, 10:00 PM)
Low64 °F (Feb 1, 7:00 AM)7% (Feb 11, 3:00 PM)29.89 "Hg (Feb 2, 4:00 PM)
Average81 °F14%30.01 "Hg
* Reported Jan 27 10:00 PM — Feb 11 10:00 PM, Parakou, Weather by CustomWeather, © 2016

Note: Actual official high and low records may vary slightly from our data, if they occured in-between our weather recording intervals... More about our weather records

Advertising

Parakou Weather History for the Previous 24 Hours

 ConditionsComfort  
Time TempWeatherWind HumidityBarometerVisibility
10:00 PM
Thu, Feb 11
81 °FClear.7 mph20%29.98 "Hg10 mi
7:00 PM88 °FClear.5 mph10%29.92 "Hg10 mi
6:00 PM91 °FPassing clouds.5 mph8%29.98 "HgN/A
5:00 PM93 °FPassing clouds.3 mph8%29.89 "HgN/A
4:00 PM93 °FSunny.6 mph8%29.89 "Hg10 mi
3:00 PM93 °FSunny.3 mph7%29.92 "Hg10 mi
2:00 PM90 °FSunny.6 mph8%29.95 "Hg10 mi
1:00 PM88 °FPassing clouds.10 mph9%29.98 "HgN/A
12:00 PM84 °FSunny.12 mph10%30.01 "Hg10 mi
11:00 AM81 °FSunny.16 mph11%30.04 "Hg10 mi
10:00 AM77 °FClear.N/A12%30.04 "Hg6 mi
9:00 AM72 °FClear.13 mph15%30.04 "Hg6 mi
8:00 AM68 °FClear.9 mph16%30.01 "Hg5 mi
7:00 AM70 °FSunny.13 mph15%30.01 "Hg10 mi
4:00 AM72 °FClear.14 mph19%29.98 "Hg10 mi
1:00 AM73 °FClear.12 mph20%30.01 "Hg10 mi
Weather by CustomWeather, © 2016

See weather overviewHow to use our weather pages